Location: Newark
(54.6833°N, 25.2833°E)
Time: 23:10:07
(UTC+00:00)

Altair - Pass Details

Date: 14 November 2019
Orbit: 1502 x 1682 km, 47.2° (Epoch: 05 December)

Event Time Altitude Azimuth Distance (km) Brightness Sun altitude
Rises 10:18:40 0° 282° (WNW) 4,709 10.0 17.0°
Reaches altitude 10° 10:23:59 10° 257° (WSW) 3,759 9.8 17.0°
Maximum altitude 10:27:45 13° 233° (SW) 3,545 10.2 16.9°
Drops below altitude 10° 10:31:35 10° 209° (SSW) 3,811 11.1 16.9°
Sets 10:37:06 0° 185° (S) 4,833 11.9 16.8°
